Location: G�rlitz
(51.1670°N, 15.0000°E)
Time: 05:59:16
(UTC+02:00)

Gurwin Techsat 1B - Visible Passes

Search period start: 21 April 2026 00:00
Search period end: 01 May 2026 00:00
Orbit: 809 x 812 km, 99.0° (Epoch: 20 April)

Date Brightness Start Highest point End Pass type
(mag) Time Alt. Az. Time Alt. Az. Time Alt. Az.
21 Apr 11.4 04:53:11 10° NE 04:56:17 15° E 04:59:22 10° ESE visible
25 Apr 11.4 04:58:29 10° NE 05:01:53 17° E 05:05:16 10° SE visible
26 Apr 11.9 04:36:51 10° ENE 04:37:54 11° E 04:38:57 10° E visible
30 Apr 11.7 04:41:39 10° ENE 04:43:31 12° E 04:45:23 10° ESE visible
